Starlink 32635

operational
NORAD ID: 62155 Int'l Des: 2024-224 Owner: SPXS Country: US Constellation: starlink
LEOCIRCULAR

About Starlink 32635

Description loading...

Live Position

Loading 3D Globe...

Upcoming Passes

Altitude History

Altitude vs Time

uPlot chart will show altitude changes over time

Two-Line Element Set

1 62155U 24224S 25303.64440687 .00051415 00000-0 18628-2 0 9998
2 62155 43.0016 180.1119 0001098 279.1668 80.9059 15.27617876 52348
Epoch: Oct 30, 2025 • Age: 22 hours

Current Status

Altitude 486.0 km
Velocity 7.63 km/s
Sub-Earth Point 40.45°N, 40.72°E
Launch Date Nov 30, 2024
Age 0.9 years
Type internet

Technical Details

Classification Payload
Mass 730.00 kg
Dry Mass 700.00 kg
Total Mass 730.00 kg
Length 0.30 m
Diameter 4.10 m
Span 29.00 m
Shape Box + pan
Manufacturer SPXS
Bus Type Starlink V2M
Phase Status In Orbit
Owner/State SPXS/US

Large Constellations

Loading constellations...